Weather History for KORD - October, 2013

Change the Weather History Date:

Saturday, October 19, 2013

  Actual Average Record
Temperature  
Mean Temperature 48 °F 52 °F  
Max Temperature 54 °F 61 °F 84 °F (1953)
Min Temperature 42 °F 42 °F 21 °F (1992)
Degree Days  
Heating Degree Days 17 14  
Month to date heating degree days 141 207  
Since 1 July heating degree days 220 325  
Cooling Degree Days 0 0  
Month to date cooling degree days 25 10  
Year to date cooling degree days 933 842  
Moisture  
Dew Point 37 °F    
Average Humidity 64    
Maximum Humidity 83    
Minimum Humidity 45    
Precipitation  
Precipitation 0.00 in 0.10 in 2.22 in (1885)
Month to date precipitation 1.51 1.90  
Year to date precipitation 36.45 30.24  
Snow  
Snow 0.00 in 0.00 in 3.80 in (1989)
Month to date snowfall 0.0 0.1  
Since 1 July snowfall 0.0 0.1  
Since 1 September snowfall 0.0 0.1  
Snow Depth -    
Sea Level Pressure  
Sea Level Pressure 29.84 in    
Wind  
Wind Speed 10 mph (WSW)    
Max Wind Speed 22 mph    
Max Gust Speed 30 mph    
Visibility 10 miles    
Events Rain    
T = Trace of Precipitation, MM = Missing Value Source: NWS Daily Summary

Daily Weather History Graph

Daily Weather History Graph

Search for Another Location

Airport or City:

Trip Planner

Search our weather history database for the weather conditions in past years. The results will help you decide how hot, cold, wet, or windy it might be!

Date:

Astronomy

Oct. 19, 2013 Rise Set
Actual Time 7:09 AM CDT 6:03 PM CDT
Civil Twilight 6:40 AM CDT 6:31 PM CDT
Nautical Twilight 6:08 AM CDT 7:04 PM CDT
Astronomical Twilight 5:35 AM CDT 7:36 PM CDT
Moon 6:29 PM CDT (10/19) 7:47 AM CDT (10/19)
Length of Visible Light 11h 51m
Length of Day
10h 54m
Waxing Gibbous, 99% of the Moon is Illuminated
Oct 19
Waxing Gibbous
Oct 26
Last Quarter
Nov 3
New
Nov 9
First Quarter
Nov 17
Full

Hourly Weather History & Observations

Time (CDT) Temp. Windchill Dew Point Humidity Pressure Visibility Wind Dir Wind Speed Gust Speed Precip Events Conditions
12:51 AM 45.0 °F 41.2 °F 39.0 °F 80% 29.92 in 10.0 mi WSW 6.9 mph - N/A   Overcast
1:51 AM 45.0 °F 42.6 °F 39.0 °F 80% 29.90 in 10.0 mi WSW 4.6 mph - N/A   Overcast
2:51 AM 44.1 °F 41.5 °F 39.0 °F 82% 29.88 in 10.0 mi WSW 4.6 mph - N/A   Overcast
3:51 AM 44.1 °F 40.8 °F 39.0 °F 82% 29.86 in 10.0 mi WSW 5.8 mph - N/A   Overcast
4:51 AM 44.1 °F 40.1 °F 37.9 °F 79% 29.86 in 10.0 mi WSW 6.9 mph - N/A   Overcast
5:51 AM 44.1 °F 39.5 °F 37.9 °F 79% 29.86 in 10.0 mi WSW 8.1 mph - N/A   Overcast
6:51 AM 43.0 °F 38.8 °F 37.0 °F 80% 29.86 in 10.0 mi WSW 6.9 mph - N/A   Overcast
7:51 AM 42.1 °F 37.1 °F 37.0 °F 82% 29.86 in 10.0 mi WSW 8.1 mph - N/A   Mostly Cloudy
8:51 AM 44.1 °F 39.0 °F 37.0 °F 76% 29.86 in 10.0 mi WSW 9.2 mph - N/A   Scattered Clouds
9:51 AM 46.0 °F 40.2 °F 36.0 °F 68% 29.85 in 10.0 mi WSW 12.7 mph - N/A   Scattered Clouds
10:51 AM 48.9 °F - 36.0 °F 61% 29.83 in 10.0 mi SSW 9.2 mph - N/A   Partly Cloudy
11:51 AM 52.0 °F - 34.0 °F 50% 29.81 in 10.0 mi WSW 12.7 mph - N/A   Scattered Clouds
12:51 PM 52.0 °F - 35.1 °F 53% 29.81 in 10.0 mi West 19.6 mph 25.3 mph N/A   Mostly Cloudy
1:51 PM 51.1 °F - 34.0 °F 52% 29.79 in 10.0 mi WSW 15.0 mph - N/A   Mostly Cloudy
2:51 PM 53.1 °F - 32.0 °F 45% 29.78 in 10.0 mi West 18.4 mph 25.3 mph N/A   Mostly Cloudy
3:51 PM 52.0 °F - 33.1 °F 49% 29.79 in 10.0 mi SW 13.8 mph 19.6 mph N/A   Mostly Cloudy
4:51 PM 52.0 °F - 32.0 °F 47% 29.79 in 10.0 mi WSW 11.5 mph - N/A   Mostly Cloudy
5:51 PM 46.9 °F - 39.0 °F 74% 29.82 in 10.0 mi West 10.4 mph 19.6 mph 0.01 in Rain Light Rain
6:51 PM 46.0 °F 41.9 °F 39.0 °F 76% 29.83 in 10.0 mi West 8.1 mph - 0.00 in   Overcast
7:51 PM 46.9 °F - 39.0 °F 74% 29.83 in 10.0 mi SW 8.1 mph - 0.00 in   Overcast
8:51 PM 45.0 °F 41.2 °F 39.0 °F 80% 29.83 in 10.0 mi SSW 6.9 mph - N/A   Mostly Cloudy
9:51 PM 46.0 °F 43.9 °F 39.0 °F 76% 29.83 in 10.0 mi SW 4.6 mph - N/A   Overcast
10:51 PM 46.0 °F 43.9 °F 39.0 °F 76% 29.83 in 10.0 mi SW 4.6 mph - N/A   Overcast
11:51 PM 46.9 °F - 37.9 °F 71% 29.82 in 10.0 mi WSW 8.1 mph - 0.00 in Rain Light Rain